User: anonymous
Location: Deer Lake
(49.1830°N, 57.4330°W)
Time: 16:25:25
(UTC-02:-30)
Language:

NOSS 3-1 (C) - Orbit

View from above orbital plane
View from above orbital plane
View from above satellite
View from above satellite

Ground track
Ground track

The orbit data is extracted from the following two-line orbital elements,

1 26907U 01040C   14230.91128343 0.00000000  00000-0  00000-0 0    03
2 26907  63.4213 147.2541 0277000 358.0127   1.9873 13.41202274    05
Epoch (UTC): 18 August 2014 21:52:14
Eccentricity: 0.0277000
inclination: 63.4213°
perigee height: 897 km
apogee height: 1312 km
right ascension of ascending node: 147.2541°
argument of perigee: 358.0127°
revolutions per day: 13.41202274
mean anomaly at epoch: 1.9873°
orbit number at epoch: 0

The dashed part of the orbit path shows where the satellite is in the earth's shadow,  

DLR